{"data":{"norad_id":58876,"epoch":"2026-05-24T18:37:08.651712Z","epoch_age_seconds":90842,"freshness":"FRESH","line1":"1 58876U 24020A   26144.77579458  .00003044  00000+0  11490-3 0  9999","line2":"2 58876  53.1608 328.7696 0001257  80.8972 279.2171 15.30191013130905","mean_motion":15.30191013,"eccentricity":0.0001257,"inclination_deg":53.1608,"raan_deg":328.7696,"arg_perigee_deg":80.8972,"mean_anomaly_deg":279.2171,"bstar":0.0001149,"rev_number":13090,"period_min":94.105898398712,"perigee_km":474.38043338462,"apogee_km":476.10337284086,"semimajor_km":6853.3789031127,"source":"CELESTRAK","updated_at":"2026-05-25T13:38:18.781861Z"}}